TimeCST,TemperatureF,Dew PointF,Humidity,Sea Level PressureIn,VisibilityMPH,Wind Direction,Wind SpeedMPH,Gust SpeedMPH,PrecipitationIn,Events,Conditions,WindDirDegrees,DateUTC
12:52 AM,46.0,32.0,58,30.09,10.0,SSW,8.1,-,N/A,,Clear,200,2012-11-30 06:52:00
1:52 AM,46.0,32.0,58,30.10,10.0,SSW,9.2,-,N/A,,Clear,200,2012-11-30 07:52:00
2:52 AM,46.0,32.0,58,30.09,10.0,South,15.0,-,N/A,,Clear,190,2012-11-30 08:52:00
3:52 AM,46.9,32.0,56,30.07,10.0,South,12.7,23.0,N/A,,Clear,190,2012-11-30 09:52:00
4:52 AM,46.0,32.0,58,30.08,10.0,South,12.7,-,N/A,,Partly Cloudy,190,2012-11-30 10:52:00
5:52 AM,46.0,32.0,58,30.07,10.0,South,13.8,-,N/A,,Partly Cloudy,190,2012-11-30 11:52:00
6:52 AM,45.0,32.0,60,30.07,10.0,South,10.4,-,N/A,,Clear,180,2012-11-30 12:52:00
7:52 AM,46.9,32.0,56,30.09,10.0,South,11.5,-,N/A,,Clear,190,2012-11-30 13:52:00
8:52 AM,50.0,33.1,52,30.10,10.0,SSW,8.1,-,N/A,,Clear,200,2012-11-30 14:52:00
9:52 AM,55.0,35.1,47,30.10,10.0,SW,8.1,-,N/A,,Clear,220,2012-11-30 15:52:00
10:52 AM,55.4,35.1,46,30.09,10.0,West,13.8,-,N/A,,Clear,260,2012-11-30 16:52:00
11:52 AM,59.0,37.4,45,30.06,10.0,West,9.2,-,N/A,,Clear,260,2012-11-30 17:52:00
12:52 PM,62.1,37.9,41,30.05,10.0,SW,5.8,-,N/A,,Clear,230,2012-11-30 18:52:00
1:52 PM,63.0,37.9,40,30.06,10.0,SW,6.9,-,N/A,,Clear,230,2012-11-30 19:52:00
2:52 PM,63.0,39.0,41,30.06,10.0,SW,6.9,-,N/A,,Clear,230,2012-11-30 20:52:00
3:52 PM,62.1,39.9,44,30.07,10.0,SSW,4.6,-,N/A,,Clear,210,2012-11-30 21:52:00
4:52 PM,55.9,39.0,53,30.09,10.0,South,3.5,-,N/A,,Clear,190,2012-11-30 22:52:00
5:52 PM,50.0,37.9,63,30.11,10.0,Calm,Calm,-,N/A,,Clear,0,2012-11-30 23:52:00
6:52 PM,52.0,39.0,61,30.12,10.0,SSE,5.8,-,N/A,,Clear,150,2012-12-01 00:52:00
7:52 PM,46.0,37.0,71,30.11,10.0,Calm,Calm,-,N/A,,Clear,0,2012-12-01 01:52:00
8:52 PM,48.9,39.9,71,30.10,10.0,Calm,Calm,-,N/A,,Clear,0,2012-12-01 02:52:00
9:52 PM,44.1,37.0,76,30.10,10.0,Calm,Calm,-,N/A,,Clear,0,2012-12-01 03:52:00
10:52 PM,45.0,36.0,71,30.10,10.0,South,3.5,-,N/A,,Clear,180,2012-12-01 04:52:00
11:52 PM,44.1,37.9,79,30.09,10.0,SSE,4.6,-,N/A,,Clear,150,2012-12-01 05:52:00